Weather History for KIXD - March, 2014

Change the Weather History Date:

Thursday, March 6, 2014

  Actual Average Record
Temperature  
Mean Temperature 34 °F -  
Max Temperature 48 °F 46 °F 71 °F (2005)
Min Temperature 19 °F 25 °F 15 °F (2003)
Degree Days  
Heating Degree Days 32    
Moisture  
Dew Point 25 °F    
Average Humidity 78    
Maximum Humidity 96    
Minimum Humidity 50    
Precipitation  
Precipitation 0.00 in - - ()
Sea Level Pressure  
Sea Level Pressure 30.17 in    
Wind  
Wind Speed 6 mph (SE)    
Max Wind Speed 12 mph    
Max Gust Speed -    
Visibility 4 miles    
Events Snow    
Averages and records for this station are not official NWS values.
T = Trace of Precipitation, MM = Missing Value Source: NWS Daily Summary

Daily Weather History Graph

Daily Weather History Graph

Search for Another Location

Airport or City:

Trip Planner

Search our weather history database for the weather conditions in past years. The results will help you decide how hot, cold, wet, or windy it might be!

Date:

Astronomy

Mar. 06, 2014 Rise Set
Actual Time 6:44 AM CST 6:17 PM CST
Civil Twilight 6:17 AM CST 6:44 PM CST
Nautical Twilight 5:47 AM CST 7:15 PM CST
Astronomical Twilight 5:16 AM CST 7:46 PM CST
Moon 9:56 AM CST (3/6) No Moon Set
Length of Visible Light 12h 26m
Length of Day
11h 33m
Waxing Crescent, 32% of the Moon is Illuminated
Mar 6
Waxing Crescent
Mar 8
First Quarter
Mar 16
Full
Mar 23
Last Quarter
Mar 30
New

Hourly Weather History & Observations

Time (CST) Temp. Windchill Dew Point Humidity Pressure Visibility Wind Dir Wind Speed Gust Speed Precip Events Conditions
12:53 AM 24.1 °F 16.0 °F 21.9 °F 91% 30.29 in 2.5 mi NNW 6.9 mph - N/A   Clear
1:39 AM 21.9 °F 15.7 °F 21.0 °F 96% 30.24 in 1.8 mi NNE 4.6 mph - N/A   Clear
1:53 AM 21.9 °F 17.2 °F 21.0 °F 96% 30.26 in 1.5 mi NNE 3.5 mph - N/A   Clear
2:15 AM 21.0 °F 13.4 °F 19.0 °F 92% 30.24 in 2.0 mi NNW 5.8 mph - N/A   Clear
2:53 AM 21.9 °F 13.4 °F 19.9 °F 92% 30.26 in 2.0 mi NNW 6.9 mph - N/A   Clear
3:36 AM 19.9 °F 14.9 °F 19.0 °F 96% 30.22 in 1.8 mi North 3.5 mph - N/A   Clear
3:53 AM 19.9 °F 13.4 °F 18.0 °F 92% 30.25 in 2.0 mi North 4.6 mph - N/A   Clear
4:53 AM 19.9 °F 13.4 °F 18.0 °F 92% 30.27 in 2.5 mi NW 4.6 mph - N/A   Clear
5:53 AM 19.9 °F 13.4 °F 18.0 °F 92% 30.27 in 2.5 mi North 4.6 mph - N/A   Clear
6:53 AM 21.0 °F 16.2 °F 19.0 °F 92% 30.27 in 2.0 mi North 3.5 mph - N/A   Clear
7:00 AM 19.9 °F 14.9 °F 18.0 °F 92% 30.23 in 1.5 mi North 3.5 mph - N/A   Clear
7:53 AM 25.0 °F 20.7 °F 21.9 °F 88% 30.26 in 1.8 mi ENE 3.5 mph - 0.00 in Snow Light Snow
8:05 AM 26.1 °F 19.4 °F 23.0 °F 88% 30.22 in 2.0 mi East 5.8 mph - 0.00 in   Clear
8:53 AM 28.9 °F 21.1 °F 25.0 °F 85% 30.24 in 2.5 mi ESE 8.1 mph - 0.00 in   Clear
9:05 AM 28.9 °F 21.1 °F 25.0 °F 85% 30.21 in 3.0 mi SE 8.1 mph - N/A   Clear
9:53 AM 33.1 °F 26.9 °F 27.0 °F 78% 30.23 in 4.0 mi SE 6.9 mph - N/A   Haze
10:53 AM 37.0 °F 33.3 °F 27.0 °F 67% 30.24 in 5.0 mi ESE 4.6 mph - N/A   Haze
11:53 AM 39.9 °F 36.7 °F 27.0 °F 60% 30.24 in 6.0 mi SSW 4.6 mph - N/A   Haze
12:53 PM 42.1 °F 37.1 °F 28.0 °F 58% 30.18 in 7.0 mi SSE 8.1 mph - N/A   Clear
1:53 PM 46.0 °F 40.6 °F 30.0 °F 54% 30.14 in 7.0 mi SSE 11.5 mph - N/A   Clear
2:53 PM 46.9 °F - 30.0 °F 52% 30.11 in 8.0 mi SSW 6.9 mph - N/A   Clear
3:53 PM 48.0 °F - 30.9 °F 52% 30.09 in 8.0 mi South 9.2 mph - N/A   Clear
4:53 PM 48.0 °F - 30.0 °F 50% 30.06 in 8.0 mi South 9.2 mph - N/A   Clear
5:53 PM 43.0 °F 38.8 °F 30.0 °F 60% 30.04 in 8.0 mi SSE 6.9 mph - N/A   Clear
6:53 PM 39.9 °F 35.8 °F 28.9 °F 65% 30.02 in 9.0 mi SSE 5.8 mph - N/A   Clear
7:53 PM 37.9 °F 32.7 °F 28.0 °F 68% 30.02 in 9.0 mi SSE 6.9 mph - N/A   Clear
8:53 PM 36.0 °F 29.0 °F 28.0 °F 73% 29.99 in 8.0 mi South 9.2 mph - N/A   Clear
9:53 PM 33.1 °F 26.9 °F 27.0 °F 78% 30.00 in 7.0 mi South 6.9 mph - N/A   Clear
10:53 PM 34.0 °F 28.8 °F 28.0 °F 79% 30.01 in 6.0 mi South 5.8 mph - N/A   Haze
11:53 PM 34.0 °F 26.6 °F 28.0 °F 79% 29.99 in 5.0 mi South 9.2 mph - 0.00 in   Haze